This demonstration page uses our WeatherBlox Daily Observations layout. Learn more.

Left ArrowRight Arrow

39.01783, -85.05884

Hourly Observations for December 1, 2022

Temp ( °F °C ) Dew Point ( °F °C ) Humidity (%) Winds ( mph kmh ) Pressure ( in mb ) Visibility ( mi km ) Precip ( " mm )
12:52 am 00:52 Clear 27 -2.8 16 -8.9 63 63 W 14 22 30.37 1028 10 16 0.00 0.00
1:52 am 01:52 Clear 25 -3.9 15 -9.4 65 65 W 12 19 30.39 1029 10 16 0.00 0.00
2:52 am 02:52 Clear 24 -4.4 15 -9.4 68 68 W 6 9 30.43 1030 10 16 0.00 0.00
3:52 am 03:52 Clear 23 -5 15 -9.4 71 71 W 8 13 30.45 1031 10 16 0.00 0.00
4:52 am 04:52 Clear 23 -5 15 -9.4 71 71 WNW 6 9 30.45 1031 10 16 0.00 0.00
5:52 am 05:52 Clear 22 -5.6 15 -9.4 74 74 WSW 3 6 30.48 1032 10 16 0.00 0.00
6:52 am 06:52 Clear 22 -5.6 15 -9.4 74 74 W 7 11 30.51 1033 10 16 0.00 0.00
7:52 am 07:52 Sunny 20 -6.7 15 -9.4 81 81 WSW 3 6 30.54 1034 10 16 0.00 0.00
8:52 am 08:52 Sunny 25 -3.9 17 -8.3 71 71 W 7 11 30.56 1035 10 16 0.00 0.00
9:52 am 09:52 Partly Cloudy 28 -2.2 17 -8.3 63 63 W 5 7 30.57 1035 10 16 0.00 0.00
10:52 am 10:52 Partly Cloudy 30 -1.1 17 -8.3 58 58 Calm 30.57 1035 10 16 0.00 0.00
11:52 am 11:52 Mostly Cloudy 32 0 17 -8.3 53 53 SE 5 7 30.56 1035 10 16 0.00 0.00
12:52 pm 12:52 Mostly Cloudy 33 0.6 17 -8.3 51 51 SSE 3 6 30.54 1034 10 16 0.00 0.00
1:52 pm 13:52 Mostly Cloudy 37 2.8 17 -8.3 44 44 VRB 5 7 30.51 1033 10 16 0.00 0.00
2:52 pm 14:52 Mostly Cloudy 38 3.3 18 -7.8 44 44 SSW 8 13 30.50 1033 10 16 0.00 0.00
3:52 pm 15:52 Mostly Cloudy 37 2.8 17 -8.3 44 44 SSE 5 7 30.48 1032 10 16 0.00 0.00
4:52 pm 16:52 Mostly Cloudy 36 2.2 17 -8.3 46 46 S 6 9 30.47 1032 10 16 0.00 0.00
5:52 pm 17:52 Mostly Cloudy 35 1.7 19 -7.2 52 52 SSE 6 9 30.45 1031 10 16 0.00 0.00
6:52 pm 18:52 Mostly Cloudy 34 1.1 19 -7.2 54 54 ESE 6 9 30.45 1031 10 16 0.00 0.00
8:52 pm 20:52 Clear 31 -0.6 18 -7.8 58 58 SE 3 6 30.43 1031 10 16 0.00 0.00
9:52 pm 21:52 Mostly Clear 31 -0.6 18 -7.8 58 58 SE 6 9 30.41 1030 10 16 0.00 0.00
10:52 pm 22:52 Mostly Clear 30 -1.1 19 -7.2 63 63 SSE 6 9 30.39 1029 10 16 0.00 0.00
11:52 pm 23:52 Clear 29 -1.7 19 -7.2 66 66 SE 7 11 30.37 1029 10 16 0.00 0.00

Powered by AerisWeather